Torna al catalogo

WESTAR 3

AttivoComunicazioniGEO
NORAD 11484·PAYLOAD·🇺🇸 United States

Lanciato Aug 10, 1979 da Cape Canaveral Space Force Station

Loading…

TLE

AggiornatoSource: Space-Track

Epoca: Sep 14, 2026, 14:15 UTC

1 11484U 79072A   26257.59390775 -.00000218  00000-0  00000-0 0  9992
2 11484  10.1194 320.5948 0002954 298.4792  42.9968  0.99937772141409

Traccia WESTAR 3 in tempo reale con AllMySat

Download on the App Store